Regional Weather Roundup
Issued by NWS

Home | Current Version | Previous Version | Graphics & Text | Print | Product List | Glossary On
Versions: 1 2 3 4 5 6 7 8 9 10 11 12 13 14 15 16 17 18 19 20 21 22 23 24 25 26 27 28 29 30 31 32 33 34 35 36 37 38 39 40 41 42 43 44 45 46 47 48 49 50
000
ASUS43 KDTX 130810
RWRMI
MICHIGAN HOURLY REGIONAL WEATHER ROUNDUP
NATIONAL WEATHER SERVICE DETROIT/PONTIAC MI
300 AM EST WED DEC 13 2017

NOTE: "FAIR" INDICATES FEW OR NO CLOUDS BELOW 12,000 FEET WITH NO
SIGNIFICANT WEATHER AND/OR OBSTRUCTION TO VISIBILITY.

MIZ047>049-052>055-059>063-066>070-074>076-081>083-130900-
SOUTHEAST LOWER MICHIGAN

CITY           SKY/WX    TMP DP  RH WIND       PRES   REMARKS
ADRIAN         CLOUDY    17  10  74 W7        29.87F WCI   8
ALMA           CLOUDY    16  12  87 CALM      29.83S
ANN ARBOR      CLOUDY    14   6  70 W3        29.84F
BAD AXE        MOCLDY    10   3  72 NW8       29.81F WCI  -2
CARO           CLOUDY    14   6  72 W6        29.82F WCI   5
DETROIT CITY   CLOUDY    14   9  80 W6        29.85F WCI   5
DETROIT        CLOUDY    15   6  67 W9        29.87S WCI   3
FLINT          CLOUDY    14   9  80 W6        29.83F WCI   5
GROSSE ILE     MOCLDY    15   8  72 NW7       29.85F WCI   5
HILLSDALE      FLURRIES  18  12  79 SW5       29.82F WCI  11
HOWELL         CLOUDY    15  10  79 SW5       29.83S WCI   7

CITY           SKY/WX    TMP DP  RH WIND       PRES   REMARKS
JACKSON        CLOUDY    16   9  74 SW8       29.84S WCI   5
LAMBERTVILLE   CLOUDY    18   9  69 W5        29.87F WCI  11
LANSING        CLOUDY    17   9  70 SW7       29.84F WCI   8
LAPEER         CLOUDY    14   6  69 NW5       29.82S WCI   6
MASON          CLOUDY    17   7  63 CALM      29.83F
MONROE         CLOUDY    17   5  59 W3        29.87S
MT. CLEMENS    MOCLDY    10   5  79 W5        29.82S WCI   2
PONTIAC        CLOUDY    13  10  88 W8        29.80F WCI   2
PORT HOPE        N/A     15   7  70 W14G22    29.78F WCI   0
PORT HURON     PTCLDY     9   1  72 CALM      29.83R
TRI CITIES     CLOUDY    15   9  76 W3        29.84F
MIDLAND        CLOUDY    15   9  74 CALM      29.84R
TROY           FLURRIES  17  10  75 W3        29.85S
SAGINAW HB     CLOUDY    18   9  68 W3        29.84S
$$
MIZ043>046-050>051-056>058-064>065-071>073-077>080-130900-
SOUTHWEST LOWER MICHIGAN

CITY           SKY/WX    TMP DP  RH WIND       PRES   REMARKS
BATTLE CREEK   LGT SNOW  16  12  84 S6        29.84F FOG     WCI   7
BENTON HARBOR  CLOUDY    22   9  57 W9        29.85F WCI  12
BIG RAPIDS     CLOUDY    16  10  79 CALM      29.79F
COLDWATER      FLURRIES  17  13  86 CALM      29.85S
FREMONT        FLURRIES  16  14  90 CALM      29.81F
HOLLAND        CLOUDY    16  13  88 S5        29.85S WCI   9
GRAND RAPIDS   CLOUDY    17  15  92 S7        29.83F WCI   8
IONIA          CLOUDY    17  10  75 SW6       29.83S WCI   9
KALAMAZOO      MOCLDY    16  13  88 S3        29.85F
LUDINGTON      CLOUDY    19  12  76 CALM      29.80F
MARSHALL       CLOUDY    16  12  85 SW5       29.84S WCI   9
MOUNT PLEASANT CLOUDY    16  11  81 CALM      29.82R
MUSKEGON       MOCLDY    17  13  84 SE8       29.83F WCI   7
SOUTH HAVEN    CLOUDY    25  11  55 W7        29.84F WCI  17
$$
MIZ016>042-130900-
NORTHERN LOWER MICHIGAN

CITY           SKY/WX    TMP DP  RH WIND       PRES   REMARKS
ALPENA         CLOUDY     8   4  83 W5        29.81S WCI   0
BEAVER ISLAND  FLURRIES  16  10  80 CALM      29.79F
BELLAIRE       FLURRIES  13   9  84 SE3       29.81F
CADILLAC       CLOUDY    13  10  88 SW3       29.74F
CHARLEVOIX     FLURRIES  19  11  73 NE3       29.81F
FRANKFORT      CLOUDY    20  13  76 S5        29.80S WCI  13
GAYLORD        CLOUDY     8   2  76 CALM      29.75R
GRAYLING       CLOUDY    10   4  78 CALM      29.78S
HARBOR SPRINGS CLOUDY    10   4  74 E7        29.79S WCI   0
HOUGHTON LAKE  CLOUDY    13   6  74 CALM      29.77F
MANISTEE       CLOUDY    18  12  79 E3        29.80F
OSCODA         CLEAR      2  -4  73 W5        29.81S WCI  -7
PELLSTON       FLURRIES   9   6  88 CALM      29.81S
ROGERS CITY    FLURRIES  11   6  79 W6        29.82S WCI   1
TRAVERSE CITY  CLOUDY    16  11  80 SE3       29.79F
$$
MIZ007>008-015-130900-
EASTERN UPPER MICHIGAN

CITY           SKY/WX    TMP DP  RH WIND       PRES   REMARKS
KINROSS        CLOUDY    -5  -9  83 E5        29.82R WCI -16
MACKINAC ISLAN CLOUDY     8   4  84 NE7       29.80S WCI  -4
NEWBERRY       CLOUDY     8   7  98 CALM      29.77F
S. S. MARIE    CLOUDY    -8 -12  83 CALM      29.83S
MUNISING         N/A     12   7  80 S7        29.77F WCI   1
$$
MIZ004>006-011>014-085-130900-
CENTRAL UPPER MICHIGAN

CITY           SKY/WX    TMP DP  RH WIND       PRES   REMARKS
MANISTIQUE     CLOUDY    10   2  70 CALM      29.78F
ESCANABA       CLOUDY     8   4  83 CALM      29.79F
MENOMINEE      CLOUDY    13   8  81 CALM      29.79F
SAWYER-GWINN   CLOUDY     8   4  82 CALM      29.72F
$$
MIZ001>003-009>011-084-130900-
WESTERN UPPER MICHIGAN

CITY           SKY/WX    TMP DP  RH WIND       PRES   REMARKS
IRON MOUNTAIN  CLOUDY    11   3  70 SE5       29.70F WCI   3
HOUGHTON       CLOUDY    10   3  73 SE3       29.69F
COPPER HARBOR    N/A     11   6  81 CALM      29.74F
IRONWOOD       FLURRIES  12   7  80 SE12      29.58F WCI  -2
$$

ABBREVIATIONS USED IN REMARKS
   TC - TEMPERATURE IN CELSIUS
  WCI - WIND CHILL INDEX
   HX - HEAT INDEX
  VSB - VISIBILITY




USA.gov is the U.S. government's official web portal to all federal, state and local government web resources and services.